Weather History for KMRH - January, 2012

Change the Weather History Date:

Saturday, January 21, 2012

  Actual Average Record
Temperature  
Mean Temperature 54 °F -  
Max Temperature 63 °F 52 °F 67 °F (1972)
Min Temperature 46 °F 33 °F 1 °F (1985)
Degree Days  
Heating Degree Days 10    
Growing Degree Days 4 (Base 50)    
Moisture  
Dew Point 54 °F    
Average Humidity 89    
Maximum Humidity 97    
Minimum Humidity 81    
Precipitation  
Precipitation 0.29 in - - ()
Sea Level Pressure  
Sea Level Pressure 30.03 in    
Wind  
Wind Speed 12 mph (WSW)    
Max Wind Speed 22 mph    
Max Gust Speed 32 mph    
Visibility 8 miles    
Events Rain    
Averages and records for this station are not official NWS values.
T = Trace of Precipitation, MM = Missing Value Source: NWS Daily Summary

Daily Weather History Graph

Daily Weather History Graph

Search for Another Location

Airport or City:

Trip Planner

Search our weather history database for the weather conditions in past years. The results will help you decide how hot, cold, wet, or windy it might be!

Date:

Astronomy

Jan. 21, 2012 Rise Set
Actual Time 7:11 AM EST 5:24 PM EST
Civil Twilight 6:44 AM EST 5:51 PM EST
Nautical Twilight 6:13 AM EST 6:22 PM EST
Astronomical Twilight 5:43 AM EST 6:52 PM EST
Moon 5:38 AM EST (1/21) 3:59 PM EST (1/21)
Length of Visible Light 11h 06m
Length of Day
10h 12m
Waning Crescent, 3% of the Moon is Illuminated
Jan 21
Waning Crescent
Jan 23
New
Jan 30
First Quarter
Feb 7
Full
Feb 14
Last Quarter

Hourly Weather History & Observations

Time (EST) Temp. Windchill Dew Point Humidity Pressure Visibility Wind Dir Wind Speed Gust Speed Precip Events Conditions
1:56 AM 50.0 °F - 48.0 °F 93% 30.10 in 6.0 mi Calm Calm - 0.05 in Rain Light Rain
4:45 AM 59.0 °F - 55.4 °F 88% 30.03 in 10.0 mi South 12.7 mph - N/A   Overcast
4:52 AM 60.8 °F - 57.2 °F 88% 30.03 in 10.0 mi South 12.7 mph - N/A   Overcast
4:56 AM 60.1 °F - 57.0 °F 90% 30.03 in 9.0 mi SSW 13.8 mph 21.9 mph N/A   Overcast
5:56 AM 60.1 °F - 57.9 °F 93% 30.06 in 3.0 mi SW 18.4 mph 27.6 mph 0.10 in Rain Rain
6:56 AM 60.1 °F - 57.0 °F 90% 30.04 in 7.0 mi SSW 13.8 mph - 0.05 in Rain Light Rain
7:56 AM 61.0 °F - 57.0 °F 87% 30.04 in 7.0 mi SSW 12.7 mph - 0.00 in Rain Light Rain
8:56 AM 61.0 °F - 57.0 °F 87% 30.04 in 8.0 mi SW 15.0 mph - 0.02 in Rain Light Rain
9:56 AM 61.0 °F - 57.0 °F 87% 30.04 in 7.0 mi SW 12.7 mph - 0.00 in   Overcast
10:56 AM 62.1 °F - 57.9 °F 86% 30.02 in 7.0 mi WSW 10.4 mph - N/A   Overcast
11:56 AM 63.0 °F - 57.9 °F 84% 30.00 in 7.0 mi SW 17.3 mph 25.3 mph N/A   Overcast
12:56 PM 62.1 °F - 57.9 °F 86% 29.98 in 7.0 mi SW 15.0 mph - N/A   Overcast
1:56 PM 61.0 °F - 55.9 °F 83% 29.97 in 8.0 mi SW 21.9 mph 32.2 mph N/A   Overcast
2:56 PM 61.0 °F - 55.0 °F 81% 29.96 in 8.0 mi WSW 18.4 mph 25.3 mph 0.00 in   Mostly Cloudy
3:56 PM 59.0 °F - 55.9 °F 90% 29.96 in 6.0 mi WSW 15.0 mph - 0.01 in Rain Light Rain
4:56 PM 59.0 °F - 55.9 °F 90% 29.96 in 7.0 mi WSW 13.8 mph - 0.02 in Rain Light Rain
5:56 PM 59.0 °F - 55.0 °F 87% 29.98 in 9.0 mi WSW 15.0 mph 21.9 mph 0.01 in   Overcast
6:56 PM 57.9 °F - 55.0 °F 90% 29.99 in 9.0 mi WSW 12.7 mph - 0.00 in   Mostly Cloudy
7:56 PM 57.9 °F - 55.0 °F 90% 29.99 in 9.0 mi WSW 11.5 mph - 0.00 in Rain Light Rain
8:56 PM 57.0 °F - 55.0 °F 93% 30.02 in 9.0 mi West 11.5 mph - 0.01 in Rain Light Rain
10:28 PM 50.0 °F - 48.2 °F 94% 30.08 in 5.0 mi NNE 18.4 mph 26.5 mph 0.01 in Rain Rain
10:41 PM 48.2 °F - 46.4 °F 93% 30.09 in 7.0 mi NNE 17.3 mph 24.2 mph 0.02 in Rain Light Rain
10:56 PM 46.9 °F - 46.0 °F 97% 30.11 in 10.0 mi NNE 10.4 mph 18.4 mph 0.02 in   Overcast
11:31 PM 46.4 °F 41.1 °F 44.6 °F 93% 30.10 in 10.0 mi NNE 11.5 mph 19.6 mph N/A   Overcast
11:52 PM 46.4 °F 40.1 °F 44.6 °F 93% 30.10 in 10.0 mi NNE 15.0 mph 20.7 mph N/A   Overcast
11:56 PM 46.0 °F 38.8 °F 44.1 °F 93% 30.11 in 10.0 mi NNE 18.4 mph 25.3 mph N/A   Overcast